OpenBCM V1.08-5-g2f4a (Linux)

Packet Radio Mailbox

IZ3LSV

[San Dona' di P. JN]

 Login: GUEST





  
LU1HVK > KEP      10.01.20 17:47l 241 Lines 12023 Bytes #999 (0) @ WW
BID : 38659_LU1HVK
Read: GUEST
Subj: TLE 27 10
Path: IZ3LSV<IW0QNL<JH4XSY<N3HYM<XE1FH<LU1HVK
Sent: 200110/1525Z 38659@LU1HVK.2594.CBA.ARG.SA LinBPQ6.0.19

                         _    _   _ _ _   ___     ___  __
                        | |  | | | / | | | \ \   / / |/ /
                        | |  | | | | | |_| |\ \ / /| ' /
                        | |__| |_| | |  _  | \ V / | . \
                        |_____\___/|_|_| |_|  \_/  |_|\_\

     BBS/NODO - CORDOBA (LEONES-FF87UH) - LU1HVK-4 NODO - LU1HVK-3 APRS

+----------------------------------------------------------------------------+
OSCAR 7
1  7530U 74089B   19299.55423146 -.00000036  00000-0  57129-4 0  9991
2  7530 101.7629 265.9622 0012470  95.7756  15.7247 12.53640534 56794
OSCAR 11 (UoSAT 2)
1 14781U 84021B   19299.10332015  .00000115  00000-0  20266-4 0  9998
2 14781  97.6040 317.6512 0007066 251.5368 108.5079 14.83114777917946
OSCAR 19 (LUSAT)
1 20442U 90005G   19299.05842203 -.00000019  00000-0  94260-5 0  9997
2 20442  98.6607 240.9058 0012615 124.9127 235.3244 14.32935790554908
EYESAT A
1 22825U 93061C   19299.84743993  .00000001  00000-0  18344-4 0  9990
2 22825  98.9142 291.5207 0008156 347.2870  12.8104 14.30069469360558
ITAMSAT
1 22826U 93061D   19298.90941527 +.00000011 +00000-0 +22269-4 0  9992
2 22826 098.9081 290.5356 0008519 337.8997 022.1816 14.30403600360376
RADIO ROSTO
1 23439U 94085A   19298.91542282 -.00000049 +00000-0 -19690-3 0  9992
2 23439 064.8153 267.1498 0145250 087.9862 273.7688 11.27568531022468
JAS 2
1 24278U 96046B   19299.09946737 -.00000043  00000-0 -49989-5 0  9996
2 24278  98.5575  75.0717 0349316 264.5183  91.6026 13.53094314145306
TECHSAT 1B
1 25397U 98043D   19299.84979727 -.00000020  00000-0  10651-4 0  9993
2 25397  98.6997 238.4731 0001990  50.2553 309.8801 14.23672896106399
ISS (ZARYA)
1 25544U 98067A   19299.86017743  .00000492  00000-0  16542-4 0  9993
2 25544  51.6437  68.3779 0006724 190.5591 306.7124 15.50219155195683
PCSAT
1 26931U 01043C   19298.77169833 -.00000034  00000-0  18560-4 0  9994
2 26931  67.0532  30.5881 0007483 267.3155  92.7090 14.30556155943437
SAUDISAT 1C
1 27607U 02058C   19299.33424605  .00000036  00000-0  25867-4 0  9995
2 27607  64.5566  13.2276 0074224 231.2733 128.1719 14.75582496906169
CUTE-1
1 27844U 03031E   19298.89292261 +.00000068 +00000-0 +50236-4 0  9994
2 27844 098.6853 305.1801 0010237 023.2451 336.9187 14.22201298846617
CUBESAT XI 4
1 27848U 03031J   19299.48493179  .00000051  00000-0  43161-4 0  9996
2 27848  98.6926 306.2895 0010302  32.9662 327.2156 14.21793595846581
MOZHAYETS 4
1 27939U 03042A   19299.72785556  .00000129  00000-0  31737-4 0  9991
2 27939  98.0594  73.1524 0013322  21.5088 338.6681 14.66811847859603
CUBESAT XI 5
1 28895U 05043F   19299.32719813  .00000146  00000-0  36853-4 0  9998
2 28895  97.9782  77.7598 0015659 304.9811  54.9921 14.63703240746446
CUTE-1.7+APD II
1 32785U 08021C   19299.44097068  .00000253  00000-0  32859-4 0  9995
2 32785  97.5571 293.0843 0012793 186.0613 174.0452 14.88362750622981
DELFI C3
1 32789U 08021G   19299.75423478  .00001847  00000-0  12655-3 0  9992
2 32789  97.4505 345.4126 0013091  46.2180 314.0129 15.07200928626559
SEEDS
1 32791U 08021J   19299.71015701  .00000301  00000-0  35861-4 0  9996
2 32791  97.5319 299.4282 0013815 158.7606 201.4189 14.90894572623482
YUBELEINY
1 32953U 08025A   19299.78696535  .00000020  00000-0  75656-4 0  9991
2 32953  82.5027  63.8478 0019274 203.4247 156.5961 12.43092011518470
PRISM (HITOMI)
1 33493U 09002B   19299.76099126  .00000924  00000-0  86119-4 0  9997
2 33493  98.1240 225.6547 0016516 109.5716 250.7289 14.96779716584600
KKS-1 (KISEKI)
1 33499U 09002H   19298.86478330 +.00000122 +00000-0 +26050-4 0  9999
2 33499 098.3395 141.6418 0009697 148.7259 211.4528 14.75472351577842
SWISSCUBE
1 35932U 09051B   19299.45359390  .00000142  00000-0  43216-4 0  9992
2 35932  98.5991 109.3282 0008535 123.6525 236.5487 14.56321845535664
BEESAT
1 35933U 09051C   19299.72362639  .00000113  00000-0  36601-4 0  9991
2 35933  98.6009 111.4180 0006584 132.9818 227.1931 14.56406327535813
ITUPSAT 1
1 35935U 09051E   19299.03157480  .00000087  00000-0  31090-4 0  9990
2 35935  98.6118 110.9318 0008885 134.7435 225.4486 14.55560974535458
XIWANG-1 (HOPE-1)
1 36122U 09072B   19299.47565245 -.00000040  00000-0  49563-5 0  9997
2 36122 100.0797 295.7816 0008090  51.6961 308.4879 13.16351727473956
TISAT 1
1 36799U 10035E   19299.12547244  .00000529  00000-0  59388-4 0  9995
2 36799  98.1719  95.7113 0012748  27.1821 333.0060 14.91184919504056
JUGNU
1 37839U 11058B   19299.14513271  .00000320  00000-0  28651-4 0  9990
2 37839  19.9614 269.7528 0018703 314.7250 136.2845 14.12662484415582
SRMSAT
1 37841U 11058D   19298.46994321  .00000299  00000-0  18821-4 0  9999
2 37841  19.9732 333.2856 0011798 170.2442 328.3936 14.10641512414897
M-CUBED/EXP-1 PRIME
1 37855U 11061F   19298.92664876  .00002183  00000-0  11569-3 0  9993
2 37855 101.7186 260.8834 0172955  53.5991 308.1034 15.05680648436225
HORYU 2
1 38340U 12025D   19299.75782490  .00000214  00000-0  39154-4 0  9993
2 38340  98.3157 342.1615 0012669  72.5124 287.7468 14.75764614400348
STRAND 1
1 39090U 13009E   19298.63228373  .00000043  00000-0  30182-4 0  9992
2 39090  98.4750 142.3580 0008044 266.0883  93.9383 14.35101755348886
SOMP
1 39134U 13015E   19299.67469452  .00001766  00000-0  88668-4 0  9993
2 39134  64.8625 319.2401 0037193 282.5858  77.1111 15.20427854360357
BEESAT 3
1 39135U 13015F   19299.10425108  .00001177  00000-0  67167-4 0  9999
2 39135  64.8683 341.2265 0037937 288.8933  70.8082 15.17676820359882
BEESAT 2
1 39136U 13015G   19299.45430962  .00001193  00000-0  69370-4 0  9998
2 39136  64.8692 344.2957 0029375 293.7899  66.0147 15.17094084359859
CUBEBUG 1
1 39153U 13018D   19299.85833453  .00000262  00000-0  41020-4 0  9994
2 39153  97.9815  37.2735 0017981 133.9272 226.3427 14.80613221351072
ZACUBE
1 39417U 13066B   19298.94182807 +.00000268 +00000-0 +40062-4 0  9990
2 39417 097.5625 305.1792 0058194 331.5305 028.2733 14.81166480320171
TRITON 1
1 39427U 13066M   19299.85980513  .00000227  00000-0  43777-4 0  9993
2 39427  97.6932 269.3064 0115099 108.4853 252.8902 14.67894979317437
GOMX 1
1 39430U 13066Q   19299.76535801  .00000117  00000-0  30422-4 0  9994
2 39430  97.7612 247.8452 0150377 203.7712 155.6503 14.59299601315572
HUMSAT D
1 39433U 13066T   19299.09771608  .00000315  00000-0  35955-4 0  9996
2 39433  97.5396 341.2219 0029694 226.7614 133.1126 14.92280383322377
CUBEBUG 2
1 39440U 13066AA  19298.97376186  .00000290  00000-0  47090-4 0  9997
2 39440  97.6110 289.8323 0080894  25.9573 334.5660 14.75903798319048
FUNCUBE 1
1 39444U 13066AE  19299.00567466  .00000331  00000-0  46987-4 0  9999
2 39444  97.5594 307.3056 0057148 324.5498  35.1923 14.81996054319080
UWE-3
1 39446U 13066AG  19299.70391758  .00000273  00000-0  42777-4 0  9995
2 39446  97.5860 297.6664 0069940 357.0634   3.0158 14.78439430318472
SPROUT
1 39770U 14029E   19299.87161110  .00000731  00000-0  86702-4 0  9995
2 39770  97.8898  42.3663 0009526  25.2318 334.9395 14.87473010294189
UNISAT 6
1 40012U 14033C   19299.19839400  .00000213  00000-0  38893-4 0  9993
2 40012  97.7378 160.1078 0059328  40.9653 319.5991 14.74022519287769
DUCHIFAT 1
1 40021U 14033M   19299.76726838  .00000501  00000-0  56896-4 0  9999
2 40021  97.9259 224.7989 0012697 347.8413  12.2496 14.90715837290927
QB50P1
1 40025U 14033R   19299.33243009  .00000378  00000-0  46147-4 0  9990
2 40025  97.9048 218.7937 0012485 359.7038   0.4169 14.89005332290615
CHUBUSAT 1
1 40300U 14070C   19299.83223285  .00000537  00000-0  26289-4 0  9998
2 40300  97.3156  10.6539 0019670 322.0843 175.0241 15.22217173275813
NUDT-PHONESAT
1 40900U 15049B   19299.73616174  .00001928  00000-0  84361-4 0  9993
2 40900  97.4378 307.8233 0014394  88.8280 359.8221 15.23178734227455
ZDPS 2A
1 40901U 15049C   19299.74957360  .00000811  00000-0  43282-4 0  9997
2 40901  97.4627 303.7178 0014936 108.2413 337.1963 15.17889767226968
ZDPS 2B
1 40902U 15049D   19299.77365741  .00001123  00000-0  58822-4 0  9990
2 40902  97.4579 301.1332 0014999 105.5048 258.5107 15.17762232226943
XW-2A
1 40903U 15049E   19299.76636354  .00001971  00000-0  47764-4 0  9995
2 40903  97.3238 343.1864 0014435  40.1118  95.7545 15.42230263230290
KAITUO 1A
1 40904U 15049F   19299.74679057  .00000423  00000-0  25793-4 0  9990
2 40904  97.4719 299.5645 0016047 114.4259 332.2837 15.15472301226692
OBJECT G
1 40905U 15049G   19299.72169079  .00000541  00000-0  32971-4 0  9994
2 40905  97.4769 296.9571 0017083 110.3732 335.9057 15.14372308226553
XW-2C
1 40906U 15049H   19299.91402858  .00000590  00000-0  34284-4 0  9994
2 40906  97.4726 299.8732 0016350 105.4631 316.0821 15.15794255226725
XW-2D
1 40907U 15049J   19299.74774463  .00000595  00000-0  34392-4 0  9995
2 40907  97.4705 299.3909 0015774 103.6547 342.9378 15.15991785226710
LILACSAT 2
1 40908U 15049K   19299.74274353  .00000459  00000-0  28911-4 0  9998
2 40908  97.4843 298.0630 0017268 110.8780 335.8879 15.13874165226481
XW-2F
1 40910U 15049M   19299.71687100  .00000870  00000-0  46669-4 0  9993
2 40910  97.4661 301.5607 0016346  96.4928 351.0942 15.17485880226730
XW-2B
1 40911U 15049N   19299.72051623  .00000642  00000-0  36906-4 0  9990
2 40911  97.4723 300.0352 0015723 104.5444 342.3805 15.15921105226603
KAITUO 1B
1 40912U 15049P   19299.74666097  .00001134  00000-0  55989-4 0  9999
2 40912  97.4511 305.4358 0016520  79.8111   6.1324 15.19822474227060
TIANWANG 1C (TW-1C)
1 40926U 15051B   19299.87152747  .00015706  00000-0  20846-3 0  9996
2 40926  97.1223 345.9744 0005965 242.6817 202.3206 15.58297466230416
TIANWANG 1B (TW-1B)
1 40927U 15051C   19299.72097221  .00014155  00000-0  20081-3 0  9994
2 40927  97.1238 344.9233 0005549 250.9352 249.9446 15.56530265230226
